{"data":{"norad_id":45448,"intl_designator":"2020-020AA","name":"ONEWEB-0063","alt_names":[],"object_type":"PAYLOAD","status":"ACTIVE","operator":null,"country":"UK","launch_date":"2020-03-21","launch_site_code":"TYMSC","launch_vehicle":null,"mission":null,"orbit_class":"UNKNOWN","rcs_meters":null,"size_class":null,"mass_kg":null,"dimensions":null,"purposes":["comms"],"wikipedia_slug":null,"has_3d_model":false,"image_url":null,"decayed_at":null,"tle_current":{"epoch":"2026-09-20T02:05:29.264064Z","epoch_age_seconds":50060,"freshness":"FRESH","line1":"1 45448U 20020AA  26263.08714426 -.00000317  00000+0 -93110-3 0  9999","line2":"2 45448  87.8978   2.2110 0001817 111.2784 248.8538 13.11418214315138","mean_motion":13.11418214,"eccentricity":0.0001817,"inclination_deg":87.8978,"raan_deg":2.211,"arg_perigee_deg":111.2784,"mean_anomaly_deg":248.8538,"bstar":-0.0009311,"rev_number":31513,"period_min":109.80478878723,"perigee_km":1216.297638737,"apogee_km":1219.0579578347,"semimajor_km":7595.8147982858,"source":"CELESTRAK","updated_at":"2026-09-20T09:00:44.557339Z"}}}